Torna al catalogo

DELTA 1 DEB

AttivoLEO
NORAD 10757·DEBRIS·🇺🇸 United States

Lanciato Jul 29, 1976 da Vandenberg Space Force Base

Loading…

Prossimi Passaggi (prossime 24 ore)

TLE

AggiornatoSource: Space-Track

Epoca: Sep 14, 2026, 01:00 UTC

1 10757U 76077BE  26257.04180471  .00000432  00000-0  53658-2 0  9992
2 10757 101.9128 295.2589 0232033 252.0409 134.8351 12.00609929194354

Traccia DELTA 1 DEB in tempo reale con AllMySat

Download on the App Store